Location: Dodgeville
(42.9600°N, 90.1300°W)
Time: 06:55:04
(UTC-05:00)

Amateur Radio Satellites - All Passes

Search period start: 23 August 2017 06:25
Search period end: 24 August 2017 06:25
Location: Dodgeville, 42.9600°N, 90.1300°W

Satellite Date Start Highest point End Downlink Frequencies (MHz)
Time Altitude Azimuth
KAITUO 1B 23 Aug 06:25:34 06:28:03 17° 93° (E) 06:30:32 145.475/437.950
DOVE 4 23 Aug 06:29:25 06:33:58 80° 103° (ESE) 06:38:13 437.250
HO-68 23 Aug 06:33:47 06:33:57 10° 85° (E) 06:34:08 435.675
AO-85 23 Aug 06:35:38 06:38:48 23° 315° (NW) 06:42:00 145.980
NUDT-PHONESAT 23 Aug 06:53:38 06:57:05 34° 97° (E) 07:00:31 437.300
BEESAT 3 23 Aug 06:55:11 06:56:55 12° 324° (NW) 06:58:39 437.485
LilacSat-2 23 Aug 06:56:23 07:00:13 56° 100° (E) 07:04:02 437.200
XW-2D 23 Aug 06:57:21 07:01:09 55° 100° (E) 07:04:56 145.860 - 145.880
CUTE-I 23 Aug 07:06:01 07:11:13 51° 100° (E) 07:16:21 437.470
XW-2B 23 Aug 07:08:27 07:12:18 73° 101° (ESE) 07:16:09 145.730 - 145.750
BEESAT 2 23 Aug 07:13:18 07:16:12 19° 318° (NW) 07:19:09 435.950
NO-84 23 Aug 07:16:44 07:19:34 41° 35° (NE) 07:22:35 435.350 FM
CUTE 1.7 + AOD 2 23 Aug 07:23:31 07:26:42 20° 93° (E) 07:29:51 437.475
XW-2C 23 Aug 07:27:43 07:31:33 63° 285° (WNW) 07:35:21 145.795 - 145.815
AO-7 23 Aug 07:30:35 07:34:45 15° 317° (NW) 07:38:54 .
STRAND 1 23 Aug 07:33:42 07:38:49 85° 75° (ENE) 07:43:57 437.568
XW-2F 23 Aug 07:37:46 07:41:30 50° 287° (WNW) 07:45:13 145.980 - 146.000
PCSat 23 Aug 07:44:08 07:49:36 90° 48° (NE) 07:55:01 145.827
UWE-3 23 Aug 07:49:49 07:51:19 12° 90° (E) 07:52:50 435.000/436.395/437.385
FO-29 23 Aug 07:51:26 07:56:15 19° 59° (ENE) 08:00:46 435.910
SO-50 23 Aug 07:54:55 07:59:28 70° 239° (WSW) 08:04:03 436.795
KAITUO 1B 23 Aug 07:58:40 08:02:09 35° 289° (WNW) 08:05:38 145.475/437.950
CUBEBUG 2 23 Aug 08:00:51 08:04:26 26° 95° (E) 08:08:04 437.445
SEEDS 23 Aug 08:05:43 08:09:39 35° 97° (E) 08:13:33 437.485
Tancredo 1 23 Aug 08:06:01 08:08:21 22° 136° (SE) 08:10:42 437.200
DOVE 4 23 Aug 08:09:37 08:10:53 11° 301° (WNW) 08:12:09 437.250
O/OREOS (USA 219) 23 Aug 08:15:43 08:17:23 12° 98° (E) 08:19:02 437.305
HO-68 23 Aug 08:15:51 08:22:59 65° 103° (ESE) 08:30:05 435.675
ZACube-1 23 Aug 08:22:46 08:25:17 15° 91° (E) 08:27:50 437.345
NUDT-PHONESAT 23 Aug 08:28:10 08:30:42 17° 293° (WNW) 08:33:15 437.300
nSIGHT-1 23 Aug 08:29:49 08:30:59 11° 130° (SE) 08:32:09 .
LilacSat-2 23 Aug 08:32:24 08:34:01 12° 296° (WNW) 08:35:38 437.200
XW-2D 23 Aug 08:33:17 08:34:51 12° 297° (WNW) 08:36:26 145.860 - 145.880
UNISAT 6 23 Aug 08:39:45 08:40:44 11° 61° (ENE) 08:41:43 437.425
AO-73 23 Aug 08:41:41 08:45:01 21° 94° (E) 08:48:24 145.935
AAUSAT CUBESAT 2 23 Aug 08:43:12 08:47:11 41° 98° (E) 08:51:07 437.432
CUTE-I 23 Aug 08:46:50 08:50:54 23° 297° (WNW) 08:54:56 437.470
XW-2A 23 Aug 08:47:43 08:51:07 83° 285° (WNW) 08:54:32 145.665 - 145.685
NO-84 23 Aug 08:54:32 08:56:47 18° 230° (SW) 08:59:08 435.350 FM
CUTE 1.7 + AOD 2 23 Aug 08:58:40 09:02:38 37° 289° (WNW) 09:06:35 437.475
RS-15 23 Aug 09:01:10 09:07:15 15° 94° (E) 09:13:21 29.354- 29.394
TIGRISAT 23 Aug 09:11:32 09:14:45 21° 66° (ENE) 09:17:58 435.000
STRAND 1 23 Aug 09:16:58 09:18:38 11° 272° (W) 09:20:18 437.568
Oscar 11 23 Aug 09:23:07 09:27:18 43° 98° (E) 09:31:27 .
UWE-3 23 Aug 09:23:56 09:28:10 65° 285° (WNW) 09:32:30 435.000/436.395/437.385
DELFI C3 23 Aug 09:27:25 09:27:51 10° 89° (E) 09:28:17 145.870
PRISM 23 Aug 09:29:25 09:32:48 24° 67° (ENE) 09:36:11 437.425
PCSat 23 Aug 09:29:58 09:32:10 12° 258° (WSW) 09:34:22 145.827
FO-29 23 Aug 09:33:03 09:40:36 89° 248° (WSW) 09:47:24 435.910
CUBEBUG 2 23 Aug 09:37:25 09:41:00 28° 291° (WNW) 09:44:41 437.445
Tancredo 1 23 Aug 09:40:35 09:43:22 41° 333° (NNW) 09:46:10 437.200
SEEDS 23 Aug 09:41:53 09:45:07 21° 294° (WNW) 09:48:20 437.485
O/OREOS (USA 219) 23 Aug 09:51:43 09:56:09 67° 294° (WNW) 10:00:38 437.305
ZACube-1 23 Aug 09:57:39 10:01:50 51° 287° (WNW) 10:06:05 437.345
ISS 23 Aug 09:58:49 10:02:05 78° 145° (SE) 10:05:23 437.550
nSIGHT-1 23 Aug 10:03:37 10:06:53 89° 320° (NW) 10:10:10 .
HO-68 23 Aug 10:04:25 10:10:10 27° 302° (WNW) 10:15:56 435.675
M-CUBED/EXP-1 PRIME 23 Aug 10:08:44 10:11:32 16° 56° (NE) 10:14:22 437.505
Max Valier Satellite 23 Aug 10:12:06 10:15:15 25° 96° (E) 10:18:22 145.860
UNISAT 6 23 Aug 10:12:30 10:16:50 80° 258° (WSW) 10:21:07 437.425
AO-73 23 Aug 10:17:24 10:21:19 35° 289° (WNW) 10:25:19 145.935
AAUSAT CUBESAT 2 23 Aug 10:19:28 10:22:19 18° 295° (WNW) 10:25:09 437.432
QB50P2 23 Aug 10:34:51 10:35:48 11° 61° (ENE) 10:36:45 145.880/145.840
TIGRISAT 23 Aug 10:47:16 10:51:14 36° 262° (W) 10:55:11 435.000
DELFI C3 23 Aug 10:59:05 11:03:01 63° 286° (WNW) 11:06:56 145.870
EO-88 23 Aug 10:59:44 11:03:26 79° 102° (ESE) 11:07:06 145.990 - 145.960
DUCHIFAT 1 23 Aug 10:59:46 11:02:01 14° 63° (ENE) 11:04:17 145.980
Oscar 11 23 Aug 11:00:04 11:03:06 19° 295° (WNW) 11:06:09 .
PRISM 23 Aug 11:04:18 11:07:57 29° 263° (W) 11:11:37 437.425
RS-15 23 Aug 11:05:13 11:17:14 67° 116° (ESE) 11:29:23 29.354- 29.394
Tancredo 1 23 Aug 11:17:11 11:19:06 16° 353° (N) 11:21:00 437.200
FO-29 23 Aug 11:21:47 11:26:14 17° 271° (W) 11:30:29 435.910
ISS 23 Aug 11:36:06 11:38:51 24° 343° (NNW) 11:41:38 437.550
M-CUBED/EXP-1 PRIME 23 Aug 11:40:50 11:45:22 69° 253° (WSW) 11:50:02 437.505
nSIGHT-1 23 Aug 11:40:56 11:43:37 23° 345° (NNW) 11:46:18 .
NANOSAT C BR1 23 Aug 11:44:15 11:48:16 47° 72° (ENE) 11:52:17 145.865
AIST 2D 23 Aug 11:44:58 11:48:22 55° 260° (W) 11:51:50 435.315
Max Valier Satellite 23 Aug 11:46:04 11:48:57 22° 292° (WNW) 11:51:51 145.860
POLYITAN 1 23 Aug 11:51:29 11:55:37 64° 74° (ENE) 11:59:47 437.675
BEESAT 3 23 Aug 11:54:48 11:56:20 12° 36° (NE) 11:57:51 437.485
EO-79 23 Aug 12:06:25 12:10:37 87° 254° (WSW) 12:14:50 145.935-145.965
QB50P2 23 Aug 12:06:45 12:10:57 78° 256° (WSW) 12:15:10 145.880/145.840
LO-87 23 Aug 12:20:37 12:24:10 81° 284° (WNW) 12:27:42 145.935 - 145.965
VELOX 1 23 Aug 12:21:53 12:23:05 11° 89° (E) 12:24:17 145.980
BUGSAT 1 23 Aug 12:22:36 12:26:10 30° 70° (ENE) 12:29:43 437.445
ESTCUBE 1 23 Aug 12:24:48 12:29:19 62° 101° (E) 12:33:48 437.505/2401.250
DUCHIFAT 1 23 Aug 12:33:09 12:37:14 54° 260° (W) 12:41:21 145.980
Gurwin Techsat 1B 23 Aug 12:50:35 12:54:39 23° 63° (ENE) 12:58:43 435.225
Tancredo 1 23 Aug 12:52:56 12:55:03 18° 12° (NNE) 12:57:10 437.200
Oscar 19 23 Aug 12:53:31 12:58:07 34° 67° (ENE) 13:02:46 437.125/150
AO-7 23 Aug 12:56:56 13:00:03 13° 40° (NE) 13:03:09 .
ISS 23 Aug 13:13:48 13:16:09 18° 4° (N) 13:18:30 437.550
nSIGHT-1 23 Aug 13:18:28 13:20:48 18° 5° (N) 13:23:09 .
RS-15 23 Aug 13:18:48 13:30:29 46° 321° (NW) 13:42:14 29.354- 29.394
NANOSAT C BR1 23 Aug 13:21:47 13:24:14 15° 268° (W) 13:26:40 145.865
AO-85 23 Aug 13:23:57 13:28:03 43° 51° (NE) 13:32:26 145.980
POLYITAN 1 23 Aug 13:30:32 13:31:49 11° 270° (W) 13:33:05 437.675
BEESAT 3 23 Aug 13:30:36 13:34:37 77° 56° (NE) 13:38:32 437.485
SPROUT 23 Aug 13:41:40 13:45:55 76° 285° (WNW) 13:50:08 437.525
DX 1 23 Aug 13:48:27 13:52:09 27° 96° (E) 13:55:49 434.975-435.025
BEESAT 2 23 Aug 13:51:00 13:54:53 42° 51° (NE) 13:58:44 435.950
VELOX 1 23 Aug 13:55:37 14:00:01 71° 287° (WNW) 14:04:23 145.980
BUGSAT 1 23 Aug 13:58:21 14:01:33 22° 265° (W) 14:04:44 437.445
ESTCUBE 1 23 Aug 14:03:02 14:05:36 15° 298° (WNW) 14:08:10 437.505/2401.250
50 SAT 23 Aug 14:13:14 14:16:37 78° 99° (E) 14:19:58 437.505
ITAMSAT 1 23 Aug 14:20:51 14:24:13 18° 60° (ENE) 14:27:36 435.822/435.867
Tancredo 1 23 Aug 14:27:43 14:30:37 67° 31° (NNE) 14:33:29 437.200
Gurwin Techsat 1B 23 Aug 14:29:04 14:34:14 51° 260° (W) 14:39:26 435.225
Oscar 19 23 Aug 14:32:54 14:37:25 31° 264° (W) 14:42:00 437.125/150
YUBILEINY 23 Aug 14:34:40 14:40:40 21° 78° (ENE) 14:46:38 435.215
AO-7 23 Aug 14:42:54 14:50:50 50° 62° (ENE) 14:58:47 .
ISS 23 Aug 14:50:14 14:53:18 36° 24° (NNE) 14:56:21 437.550
nSIGHT-1 23 Aug 14:54:43 14:57:49 39° 25° (NNE) 15:00:54 .
UKube-1 23 Aug 14:56:20 15:00:40 84° 286° (WNW) 15:04:57 .
BEESAT 23 Aug 14:57:40 14:59:11 11° 89° (E) 15:00:43 436.000
AO-85 23 Aug 15:04:50 15:08:14 22° 247° (WSW) 15:11:50 145.980
DX 1 23 Aug 15:24:32 15:28:18 29° 292° (WNW) 15:32:00 434.975-435.025
BEESAT 2 23 Aug 15:29:27 15:32:20 19° 248° (WSW) 15:35:11 435.950
ITUPSAT 1 23 Aug 15:32:00 15:35:58 26° 95° (E) 15:39:57 437.325
RS-15 23 Aug 15:37:25 15:47:14 26° 353° (N) 15:56:52 29.354- 29.394
MOZHAYETS 4 23 Aug 15:50:38 15:54:53 35° 97° (E) 15:59:08
ITAMSAT 1 23 Aug 15:57:59 16:03:09 66° 258° (WSW) 16:08:20 435.822/435.867
DOVE 4 23 Aug 16:00:28 16:02:38 13° 60° (ENE) 16:04:45 437.250
Tancredo 1 23 Aug 16:04:03 16:05:25 13° 228° (SW) 16:06:46 437.200
CUBESAT XI-V 23 Aug 16:19:34 16:22:19 15° 90° (E) 16:25:03 437.345
ISS 23 Aug 16:26:46 16:29:46 34° 221° (SW) 16:32:46 437.550
YUBILEINY 23 Aug 16:27:31 16:36:20 83° 278° (W) 16:45:08 435.215
nSIGHT-1 23 Aug 16:31:14 16:34:07 29° 223° (SW) 16:36:58 .
BEESAT 23 Aug 16:32:44 16:37:31 78° 287° (WNW) 16:42:17 436.000
AO-7 23 Aug 16:36:00 16:43:42 40° 261° (W) 16:51:28 .
CUTE-I 23 Aug 16:52:10 16:54:43 14° 57° (ENE) 16:57:17 437.470
HO-68 23 Aug 17:04:05 17:05:50 11° 46° (NE) 17:07:35 435.675
ITUPSAT 1 23 Aug 17:09:29 17:13:50 36° 292° (WNW) 17:18:11 437.325
KKS-1 23 Aug 17:17:06 17:20:42 24° 95° (E) 17:24:17 437.445
MOZHAYETS 4 23 Aug 17:28:07 17:31:52 25° 293° (WNW) 17:35:37
NUDT-PHONESAT 23 Aug 17:34:15 17:36:48 18° 67° (ENE) 17:39:21 437.300
DOVE 4 23 Aug 17:34:17 17:39:34 87° 78° (ENE) 17:44:42 437.250
LilacSat-2 23 Aug 17:39:07 17:42:26 30° 70° (ENE) 17:45:48 437.200
XW-2D 23 Aug 17:39:27 17:42:44 29° 70° (ENE) 17:46:02 145.860 - 145.880
STARS 23 Aug 17:47:10 17:50:27 21° 94° (E) 17:53:43 437.465
XW-2B 23 Aug 17:50:21 17:53:50 37° 72° (ENE) 17:57:21 145.730 - 145.750
RS-15 23 Aug 17:53:49 18:04:43 35° 28° (NNE) 18:15:09 29.354- 29.394
CUBESAT XI-V 23 Aug 17:55:24 18:00:03 58° 287° (WNW) 18:04:39 437.345
XW-2C 23 Aug 18:09:20 18:13:03 67° 75° (ENE) 18:16:50 145.795 - 145.815
CUTE 1.7 + AOD 2 23 Aug 18:17:30 18:20:10 17° 64° (ENE) 18:22:52 437.475
XW-2F 23 Aug 18:18:51 18:22:35 83° 77° (ENE) 18:26:23 145.980 - 146.000
O/OREOS (USA 219) 23 Aug 18:21:48 18:25:47 29° 58° (ENE) 18:29:46 437.305
CUTE-I 23 Aug 18:28:37 18:33:59 90° 116° (ESE) 18:39:22 437.470
YUBILEINY 23 Aug 18:28:53 18:34:35 19° 300° (WNW) 18:40:18 435.215
KAITUO 1B 23 Aug 18:38:43 18:42:24 70° 259° (W) 18:46:09 145.475/437.950
HO-68 23 Aug 18:45:05 18:51:58 53° 67° (ENE) 18:58:51 435.675
UWE-3 23 Aug 18:48:51 18:49:49 11° 61° (ENE) 18:50:46 435.000/436.395/437.385
KKS-1 23 Aug 18:53:19 18:57:18 33° 291° (WNW) 19:01:15 437.445
SEEDS 23 Aug 18:58:10 19:01:44 27° 68° (ENE) 19:05:20 437.485
CUBEBUG 2 23 Aug 19:00:02 19:03:26 24° 68° (ENE) 19:06:49 437.445
NUDT-PHONESAT 23 Aug 19:07:11 19:10:27 31° 263° (W) 19:13:47 437.300
LilacSat-2 23 Aug 19:14:01 19:16:46 19° 267° (W) 19:19:32 437.200
XW-2D 23 Aug 19:14:10 19:16:56 19° 267° (W) 19:19:44 145.860 - 145.880
DOVE 4 23 Aug 19:15:52 19:17:48 12° 272° (W) 19:19:42 437.250
XW-2A 23 Aug 19:19:40 19:22:41 33° 72° (ENE) 19:25:44 145.665 - 145.685
ZACube-1 23 Aug 19:20:23 19:22:19 13° 63° (ENE) 19:24:14 437.345
STARS 23 Aug 19:22:53 19:26:54 37° 290° (WNW) 19:30:54 437.465
XW-2B 23 Aug 19:25:57 19:28:11 15° 268° (W) 19:30:27 145.730 - 145.750
AAUSAT CUBESAT 2 23 Aug 19:33:58 19:37:38 30° 69° (ENE) 19:41:19 437.432
AO-73 23 Aug 19:38:36 19:41:25 18° 65° (ENE) 19:44:15 145.935
STRAND 1 23 Aug 19:43:45 19:48:02 27° 95° (E) 19:52:19 437.568
CUTE 1.7 + AOD 2 23 Aug 19:51:31 19:55:37 47° 261° (W) 19:59:46 437.475
O/OREOS (USA 219) 23 Aug 20:01:11 20:05:09 30° 256° (WSW) 20:09:07 437.305
RS-15 23 Aug 20:06:57 20:19:08 87° 58° (ENE) 20:30:36 29.354- 29.394
CUTE-I 23 Aug 20:12:59 20:14:44 11° 272° (W) 20:16:29 437.470
Oscar 11 23 Aug 20:18:34 20:22:31 36° 70° (ENE) 20:26:30 .
UWE-3 23 Aug 20:21:30 20:25:40 74° 257° (WSW) 20:29:49 435.000/436.395/437.385
HO-68 23 Aug 20:33:44 20:39:56 31° 265° (W) 20:46:10 435.675
SEEDS 23 Aug 20:33:48 20:37:21 26° 265° (W) 20:40:57 437.485
CUBEBUG 2 23 Aug 20:36:14 20:39:57 29° 264° (W) 20:43:38 437.445
Max Valier Satellite 23 Aug 20:52:53 20:54:49 14° 65° (ENE) 20:56:44 145.860
XW-2A 23 Aug 20:53:56 20:55:33 13° 268° (W) 20:57:11 145.665 - 145.685
ZACube-1 23 Aug 20:54:01 20:58:06 58° 260° (W) 21:02:12 437.345
AAUSAT CUBESAT 2 23 Aug 21:09:44 21:13:05 23° 266° (W) 21:16:27 437.432
AO-73 23 Aug 21:13:29 21:17:22 39° 262° (W) 21:21:16 145.935
STRAND 1 23 Aug 21:22:36 21:27:17 38° 292° (WNW) 21:31:58 437.568
EO-88 23 Aug 21:38:06 21:41:26 36° 72° (ENE) 21:44:48 145.990 - 145.960
DELFI C3 23 Aug 21:44:34 21:48:33 79° 77° (ENE) 21:52:34 145.870
Oscar 11 23 Aug 21:55:32 21:58:45 20° 267° (W) 22:02:00 .
UNISAT 6 23 Aug 22:03:41 22:06:50 19° 93° (E) 22:10:01 437.425
SO-50 23 Aug 22:10:16 22:14:09 29° 115° (ESE) 22:18:04 436.795
RS-15 23 Aug 22:21:00 22:29:58 26° 259° (W) 22:38:39 29.354- 29.394
Max Valier Satellite 23 Aug 22:24:50 22:28:17 41° 261° (W) 22:31:47 145.860
PCSat 23 Aug 22:26:17 22:31:39 71° 117° (ESE) 22:37:05 145.827
FO-29 23 Aug 22:27:32 22:33:04 74° 103° (ESE) 22:38:14 435.910
TIGRISAT 23 Aug 22:37:06 22:41:12 40° 98° (E) 22:45:20 435.000
PRISM 23 Aug 22:44:13 22:47:57 32° 97° (E) 22:51:38 437.425
LO-87 23 Aug 22:57:09 23:00:33 42° 73° (ENE) 23:03:57 145.935 - 145.965
EO-88 23 Aug 23:13:09 23:15:15 15° 268° (W) 23:17:21 145.990 - 145.960
VELOX 1 23 Aug 23:19:51 23:21:46 13° 60° (ENE) 23:23:40 145.980
ESTCUBE 1 23 Aug 23:24:46 23:29:13 62° 73° (ENE) 23:33:42 437.505/2401.250
UNISAT 6 23 Aug 23:39:38 23:43:41 39° 289° (WNW) 23:47:48 437.425
SO-50 23 Aug 23:50:24 23:54:32 35° 313° (NW) 23:58:40 436.795
EO-79 23 Aug 23:51:30 23:53:44 14° 91° (E) 23:55:58 145.935-145.965
QB50P2 23 Aug 23:51:45 23:54:19 16° 92° (E) 23:56:54 145.880/145.840
PCSat 24 Aug 00:11:27 00:15:36 22° 317° (NW) 00:19:45 145.827
NO-84 24 Aug 00:11:28 00:14:00 25° 132° (SE) 00:16:27 435.350 FM
FO-29 24 Aug 00:14:18 00:17:25 16° 303° (WNW) 00:20:25 435.910
TIGRISAT 24 Aug 00:14:28 00:17:37 20° 294° (WNW) 00:20:49 435.000
DUCHIFAT 1 24 Aug 00:16:36 00:19:48 21° 94° (E) 00:22:59 145.980
PRISM 24 Aug 00:19:52 00:23:02 22° 294° (WNW) 00:26:11 437.425
LO-87 24 Aug 00:32:42 00:34:11 12° 269° (W) 00:35:39 145.935 - 145.965
SPROUT 24 Aug 00:35:16 00:39:32 89° 74° (ENE) 00:43:49 437.525
AIST 2D 24 Aug 00:41:58 00:45:26 51° 286° (WNW) 00:48:54 435.315
DX 1 24 Aug 00:44:41 00:48:23 27° 67° (ENE) 00:52:05 434.975-435.025
50 SAT 24 Aug 00:44:53 00:47:52 29° 71° (ENE) 00:50:53 437.505
YUBILEINY 24 Aug 00:45:39 00:45:55 10° 51° (NE) 00:46:10 435.215
VELOX 1 24 Aug 00:53:09 00:57:36 74° 258° (WSW) 01:02:04 145.980
M-CUBED/EXP-1 PRIME 24 Aug 00:53:15 00:57:35 79° 108° (ESE) 01:01:33 437.505
NANOSAT C BR1 24 Aug 01:02:47 01:07:00 79° 103° (ESE) 01:11:12 145.865
ESTCUBE 1 24 Aug 01:04:13 01:06:25 13° 270° (W) 01:08:38 437.505/2401.250
Oscar 19 24 Aug 01:06:57 01:07:47 10° 87° (E) 01:08:37 437.125/150
POLYITAN 1 24 Aug 01:10:46 01:15:00 76° 283° (WNW) 01:19:12 437.675
EO-79 24 Aug 01:25:42 01:29:47 51° 287° (WNW) 01:33:52 145.935-145.965
QB50P2 24 Aug 01:26:19 01:30:21 46° 288° (WNW) 01:34:23 145.880/145.840
BUGSAT 1 24 Aug 01:37:55 01:41:48 44° 99° (E) 01:45:40 437.445
NO-84 24 Aug 01:48:46 01:51:19 27° 329° (NNW) 01:53:49 435.350 FM
UKube-1 24 Aug 01:51:06 01:55:26 90° 186° (S) 01:59:48 .
DUCHIFAT 1 24 Aug 01:51:45 01:55:32 34° 290° (WNW) 01:59:18 145.980
BEESAT 24 Aug 02:04:18 02:07:13 16° 61° (ENE) 02:10:09 436.000
50 SAT 24 Aug 02:18:27 02:20:35 16° 267° (W) 02:22:44 437.505
DX 1 24 Aug 02:20:39 02:24:28 29° 264° (W) 02:28:18 434.975-435.025
M-CUBED/EXP-1 PRIME 24 Aug 02:29:38 02:31:16 12° 307° (NW) 02:32:51 437.505
YUBILEINY 24 Aug 02:36:45 02:45:13 52° 75° (ENE) 02:53:37 435.215
ITUPSAT 1 24 Aug 02:39:25 02:43:40 33° 68° (ENE) 02:47:56 437.325
NANOSAT C BR1 24 Aug 02:41:13 02:42:05 11° 300° (WNW) 02:42:55 145.865
Oscar 19 24 Aug 02:42:35 02:47:50 86° 104° (ESE) 02:53:02 437.125/150
Gurwin Techsat 1B 24 Aug 02:44:07 02:49:23 59° 101° (E) 02:54:37 435.225
AO-7 24 Aug 02:46:44 02:49:37 12° 86° (E) 02:52:32 .
MOZHAYETS 4 24 Aug 02:53:12 02:57:23 37° 70° (ENE) 03:01:36
BUGSAT 1 24 Aug 03:14:20 03:16:48 16° 296° (WNW) 03:19:16 437.445
CUBESAT XI-V 24 Aug 03:23:44 03:26:49 18° 63° (ENE) 03:29:53 437.345
BEESAT 24 Aug 03:39:48 03:44:30 61° 258° (WSW) 03:49:13 436.000
ITAMSAT 1 24 Aug 04:09:58 04:14:50 40° 98° (E) 04:19:41 435.822/435.867
KKS-1 24 Aug 04:15:53 04:19:35 26° 66° (ENE) 04:23:16 437.445
ITUPSAT 1 24 Aug 04:17:29 04:21:30 27° 265° (W) 04:25:32 437.325
Oscar 19 24 Aug 04:23:51 04:26:25 14° 302° (WNW) 04:28:58 437.125/150
Gurwin Techsat 1B 24 Aug 04:25:06 04:28:52 20° 299° (WNW) 04:32:38 435.225
MOZHAYETS 4 24 Aug 04:31:05 04:34:38 22° 266° (W) 04:38:14
YUBILEINY 24 Aug 04:34:04 04:41:41 36° 275° (W) 04:49:17 435.215
AO-7 24 Aug 04:35:35 04:43:54 68° 105° (ESE) 04:52:08 .
STARS 24 Aug 04:44:36 04:47:57 22° 65° (ENE) 04:51:18 437.465
BEESAT 3 24 Aug 04:57:42 05:01:42 81° 303° (WNW) 05:05:46 437.485
CUBESAT XI-V 24 Aug 04:59:10 05:03:44 54° 260° (W) 05:08:21 437.345
AO-85 24 Aug 05:19:27 05:23:23 83° 303° (WNW) 05:27:19 145.980
BEESAT 2 24 Aug 05:19:55 05:23:49 56° 120° (ESE) 05:27:49 435.950
PCSat 24 Aug 05:31:19 05:34:14 14° 36° (NE) 05:37:09 145.827
DOVE 4 24 Aug 05:33:40 05:36:57 20° 92° (E) 05:40:06 437.250
ITAMSAT 1 24 Aug 05:49:49 05:54:06 27° 296° (WNW) 05:58:23 435.822/435.867
KKS-1 24 Aug 05:52:00 05:56:00 32° 263° (W) 06:00:00 437.445
KAITUO 1B 24 Aug 06:11:07 06:12:06 11° 90° (E) 06:13:04 145.475/437.950
